contact:dominique.lefevre@mio.osupytheas.fr, maurice.libes@osupytheas.fr, didier.mallarino@osupytheas.fr
Project:EMSO http://www.emso-fr.org/EMSO-France
Depth: 2436.0 m
Title:EMSO Ligure Ouest : Data MII capteur CSTAR
DateTime,Latitude,Longitude,Instrument_Serial,Reference_Counts,Signal_Counts,Corrected_Signal_raw_counts,Calculated_Beam_c_inverse_meters,Internal_thermistor_counts
DateTime,Latitude,Longitude,Instrument_Serial,Reference_Counts,Signal_Counts,Corrected_Signal_raw_counts,Calculated_Beam_c_inverse_meters,Internal_thermistor_counts
2020-10-25T00:02:21,42.805,6.029,CST-1368DR,5865,8208,15081,0.139,551
2020-10-25T00:05:23,42.805,6.029,CST-1368DR,5865,8207,15078,0.140,551
2020-10-25T00:08:24,42.805,6.029,CST-1368DR,5865,8207,15078,0.140,551
2020-10-25T00:11:26,42.805,6.029,CST-1368DR,5865,8208,15080,0.140,551
2020-10-25T00:14:27,42.805,6.029,CST-1368DR,5865,8207,15078,0.140,551
2020-10-25T00:17:29,42.805,6.029,CST-1368DR,5865,8208,15079,0.140,551
2020-10-25T00:20:30,42.805,6.029,CST-1368DR,5865,8207,15078,0.140,551
2020-10-25T00:23:32,42.805,6.029,CST-1368DR,5865,8207,15078,0.140,551
2020-10-25T00:26:34,42.805,6.029,CST-1368DR,5865,8208,15079,0.140,551
2020-10-25T00:29:35,42.805,6.029,CST-1368DR,5865,8207,15078,0.140,551
2020-10-25T00:32:37,42.805,6.029,CST-1368DR,5865,8208,15079,0.140,551
2020-10-25T00:35:38,42.805,6.029,CST-1368DR,5865,8208,15080,0.140,551
2020-10-25T00:38:40,42.805,6.029,CST-1368DR,5865,8208,15080,0.140,551
2020-10-25T00:41:42,42.805,6.029,CST-1368DR,5865,8207,15078,0.140,551
2020-10-25T00:44:43,42.805,6.029,CST-1368DR,5865,8208,15080,0.140,551
2020-10-25T00:47:45,42.805,6.029,CST-1368DR,5865,8207,15078,0.140,551
2020-10-25T00:50:46,42.805,6.029,CST-1368DR,5865,8208,15079,0.140,551
2020-10-25T00:53:48,42.805,6.029,CST-1368DR,5865,8208,15080,0.140,551
2020-10-25T00:56:49,42.805,6.029,CST-1368DR,5865,8207,15078,0.140,551
2020-10-25T00:59:51,42.805,6.029,CST-1368DR,5865,8206,15076,0.141,551
2020-10-25T01:02:53,42.805,6.029,CST-1368DR,5865,8207,15078,0.140,551
2020-10-25T01:05:54,42.805,6.029,CST-1368DR,5865,8208,15079,0.140,551
2020-10-25T01:08:56,42.805,6.029,CST-1368DR,5865,8208,15079,0.140,551
2020-10-25T01:11:57,42.805,6.029,CST-1368DR,5865,8206,15076,0.141,551
2020-10-25T01:14:59,42.805,6.029,CST-1368DR,5865,8207,15078,0.140,551
2020-10-25T01:18:01,42.805,6.029,CST-1368DR,5865,8206,15077,0.141,551
2020-10-25T01:21:02,42.805,6.029,CST-1368DR,5865,8208,15080,0.140,551
2020-10-25T01:24:04,42.805,6.029,CST-1368DR,5865,8207,15078,0.140,551
2020-10-25T01:27:05,42.805,6.029,CST-1368DR,5865,8207,15078,0.140,551
2020-10-25T01:30:07,42.805,6.029,CST-1368DR,5865,8207,15078,0.140,551
2020-10-25T01:33:08,42.805,6.029,CST-1368DR,5865,8207,15078,0.140,551
2020-10-25T01:36:10,42.805,6.029,CST-1368DR,5865,8208,15079,0.140,551
2020-10-25T01:39:12,42.805,6.029,CST-1368DR,5865,8207,15078,0.140,551
2020-10-25T01:42:13,42.805,6.029,CST-1368DR,5865,8207,15078,0.140,551
2020-10-25T01:45:15,42.805,6.029,CST-1368DR,5865,8208,15079,0.140,551
2020-10-25T01:48:16,42.805,6.029,CST-1368DR,5865,8207,15078,0.140,551
2020-10-25T01:51:18,42.805,6.029,CST-1368DR,5865,8207,15078,0.140,551
2020-10-25T01:54:19,42.805,6.029,CST-1368DR,5865,8207,15078,0.140,551
2020-10-25T01:57:21,42.805,6.029,CST-1368DR,5865,8207,15078,0.140,551
2020-10-25T02:00:23,42.805,6.029,CST-1368DR,5865,8207,15078,0.140,551
2020-10-25T02:03:24,42.805,6.029,CST-1368DR,5865,8207,15078,0.140,551
2020-10-25T02:06:26,42.805,6.029,CST-1368DR,5865,8206,15077,0.141,551
2020-10-25T02:09:27,42.805,6.029,CST-1368DR,5865,8205,15075,0.141,551
2020-10-25T02:12:29,42.805,6.029,CST-1368DR,5865,8207,15078,0.140,551
2020-10-25T02:15:31,42.805,6.029,CST-1368DR,5865,8206,15076,0.141,551
2020-10-25T02:18:32,42.805,6.029,CST-1368DR,5864,8205,15078,0.140,551
2020-10-25T02:21:34,42.805,6.029,CST-1368DR,5865,8207,15078,0.140,551
2020-10-25T02:24:35,42.805,6.029,CST-1368DR,5865,8206,15077,0.141,551
2020-10-25T02:27:37,42.805,6.029,CST-1368DR,5865,8207,15078,0.140,551
2020-10-25T02:30:38,42.805,6.029,CST-1368DR,5865,8207,15078,0.140,551
2020-10-25T02:33:40,42.805,6.029,CST-1368DR,5865,8206,15076,0.141,551
2020-10-25T02:36:42,42.805,6.029,CST-1368DR,5864,8207,15080,0.140,551
2020-10-25T02:39:43,42.805,6.029,CST-1368DR,5865,8207,15078,0.140,551
2020-10-25T02:42:45,42.805,6.029,CST-1368DR,5864,8207,15080,0.140,551
2020-10-25T02:45:46,42.805,6.029,CST-1368DR,5864,8206,15079,0.140,551
2020-10-25T02:48:48,42.805,6.029,CST-1368DR,5865,8206,15077,0.141,551
2020-10-25T02:51:49,42.805,6.029,CST-1368DR,5865,8206,15077,0.141,551
2020-10-25T02:54:51,42.805,6.029,CST-1368DR,5865,8207,15078,0.140,551
2020-10-25T02:57:53,42.805,6.029,CST-1368DR,5864,8207,15080,0.140,551
2020-10-25T03:00:54,42.805,6.029,CST-1368DR,5864,8208,15082,0.139,551
2020-10-25T03:03:56,42.805,6.029,CST-1368DR,5865,8206,15077,0.141,551
2020-10-25T03:06:57,42.805,6.029,CST-1368DR,5864,8207,15080,0.140,551
2020-10-25T03:09:59,42.805,6.029,CST-1368DR,5864,8206,15078,0.140,551
2020-10-25T03:13:01,42.805,6.029,CST-1368DR,5864,8206,15079,0.140,551
2020-10-25T03:16:02,42.805,6.029,CST-1368DR,5864,8206,15079,0.140,551
2020-10-25T03:19:04,42.805,6.029,CST-1368DR,5864,8207,15080,0.140,551
2020-10-25T03:22:05,42.805,6.029,CST-1368DR,5864,8207,15080,0.140,551
2020-10-25T03:25:07,42.805,6.029,CST-1368DR,5864,8206,15079,0.140,551
2020-10-25T03:28:08,42.805,6.029,CST-1368DR,5864,8207,15080,0.140,551
2020-10-25T03:31:10,42.805,6.029,CST-1368DR,5864,8206,15079,0.140,550
2020-10-25T03:34:12,42.805,6.029,CST-1368DR,5864,8206,15079,0.140,551
2020-10-25T03:37:13,42.805,6.029,CST-1368DR,5864,8207,15080,0.140,551
2020-10-25T03:40:15,42.805,6.029,CST-1368DR,5864,8206,15078,0.140,551
2020-10-25T03:43:16,42.805,6.029,CST-1368DR,5864,8206,15079,0.140,551
2020-10-25T03:46:18,42.805,6.029,CST-1368DR,5864,8206,15079,0.140,551
2020-10-25T03:49:20,42.805,6.029,CST-1368DR,5864,8207,15080,0.140,551
2020-10-25T03:52:21,42.805,6.029,CST-1368DR,5864,8206,15079,0.140,551
2020-10-25T03:55:23,42.805,6.029,CST-1368DR,5864,8207,15080,0.140,551
2020-10-25T03:58:24,42.805,6.029,CST-1368DR,5864,8206,15079,0.140,551
2020-10-25T04:01:26,42.805,6.029,CST-1368DR,5864,8206,15079,0.140,551
2020-10-25T04:04:27,42.805,6.029,CST-1368DR,5864,8205,15076,0.141,551
2020-10-25T04:07:29,42.805,6.029,CST-1368DR,5864,8206,15079,0.140,550
2020-10-25T04:10:31,42.805,6.029,CST-1368DR,5864,8206,15079,0.140,551
2020-10-25T04:13:32,42.805,6.029,CST-1368DR,5864,8207,15080,0.140,551
2020-10-25T04:16:34,42.805,6.029,CST-1368DR,5864,8206,15079,0.140,551
2020-10-25T04:19:35,42.805,6.029,CST-1368DR,5864,8205,15077,0.141,551
2020-10-25T04:22:37,42.805,6.029,CST-1368DR,5864,8206,15079,0.140,551
2020-10-25T04:25:38,42.805,6.029,CST-1368DR,5864,8206,15078,0.140,551
2020-10-25T04:28:40,42.805,6.029,CST-1368DR,5864,8206,15079,0.140,551
2020-10-25T04:31:42,42.805,6.029,CST-1368DR,5864,8207,15080,0.140,551
2020-10-25T04:34:43,42.805,6.029,CST-1368DR,5864,8206,15078,0.140,551
2020-10-25T04:37:45,42.805,6.029,CST-1368DR,5864,8207,15080,0.140,551
2020-10-25T04:40:46,42.805,6.029,CST-1368DR,5864,8205,15078,0.140,551
2020-10-25T04:43:48,42.805,6.029,CST-1368DR,5864,8206,15079,0.140,551
2020-10-25T04:46:50,42.805,6.029,CST-1368DR,5864,8206,15079,0.140,551
2020-10-25T04:49:51,42.805,6.029,CST-1368DR,5864,8206,15079,0.140,551
2020-10-25T04:52:53,42.805,6.029,CST-1368DR,5864,8206,15079,0.140,551
2020-10-25T04:55:54,42.805,6.029,CST-1368DR,5864,8207,15080,0.140,551
2020-10-25T04:58:56,42.805,6.029,CST-1368DR,5864,8202,15072,0.142,551
2020-10-25T05:01:57,42.805,6.029,CST-1368DR,5864,8206,15079,0.140,551
2020-10-25T05:04:59,42.805,6.029,CST-1368DR,5864,8206,15079,0.140,551
2020-10-25T05:08:01,42.805,6.029,CST-1368DR,5864,8206,15079,0.140,551
2020-10-25T05:11:02,42.805,6.029,CST-1368DR,5864,8206,15079,0.140,551
2020-10-25T05:14:04,42.805,6.029,CST-1368DR,5864,8206,15079,0.140,551
2020-10-25T05:17:05,42.805,6.029,CST-1368DR,5864,8205,15077,0.141,551
2020-10-25T05:20:07,42.805,6.029,CST-1368DR,5864,8205,15077,0.141,551
2020-10-25T05:23:09,42.805,6.029,CST-1368DR,5864,8207,15080,0.140,551
2020-10-25T05:26:10,42.805,6.029,CST-1368DR,5864,8205,15077,0.141,551
2020-10-25T05:29:12,42.805,6.029,CST-1368DR,5864,8205,15077,0.141,551
2020-10-25T05:32:13,42.805,6.029,CST-1368DR,5864,8206,15079,0.140,551
2020-10-25T05:35:15,42.805,6.029,CST-1368DR,5864,8206,15079,0.140,550
2020-10-25T05:38:16,42.805,6.029,CST-1368DR,5864,8205,15077,0.141,551
2020-10-25T05:41:18,42.805,6.029,CST-1368DR,5864,8206,15079,0.140,551
2020-10-25T05:44:20,42.805,6.029,CST-1368DR,5864,8203,15074,0.141,551
2020-10-25T05:47:21,42.805,6.029,CST-1368DR,5864,8206,15079,0.140,550
2020-10-25T05:50:23,42.805,6.029,CST-1368DR,5864,8206,15079,0.140,551
2020-10-25T05:53:24,42.805,6.029,CST-1368DR,5864,8206,15079,0.140,551
2020-10-25T05:56:26,42.805,6.029,CST-1368DR,5864,8203,15073,0.142,551
2020-10-25T05:59:27,42.805,6.029,CST-1368DR,5864,8206,15079,0.140,551
2020-10-25T06:02:29,42.805,6.029,CST-1368DR,5864,8206,15078,0.140,551
2020-10-25T06:05:31,42.805,6.029,CST-1368DR,5864,8206,15079,0.140,551
2020-10-25T06:08:32,42.805,6.029,CST-1368DR,5864,8206,15079,0.140,551
2020-10-25T06:11:34,42.805,6.029,CST-1368DR,5864,8206,15079,0.140,551
2020-10-25T06:14:35,42.805,6.029,CST-1368DR,5864,8207,15080,0.140,551
2020-10-25T06:17:37,42.805,6.029,CST-1368DR,5864,8205,15076,0.141,551
2020-10-25T06:20:39,42.805,6.029,CST-1368DR,5863,8204,15078,0.140,551
2020-10-25T06:23:40,42.805,6.029,CST-1368DR,5863,8204,15078,0.140,551
2020-10-25T06:26:42,42.805,6.029,CST-1368DR,5863,8206,15081,0.139,551
2020-10-25T06:29:43,42.805,6.029,CST-1368DR,5864,8205,15077,0.141,551
2020-10-25T06:32:45,42.805,6.029,CST-1368DR,5863,8202,15075,0.141,551
2020-10-25T06:35:46,42.805,6.029,CST-1368DR,5863,8206,15081,0.139,551
2020-10-25T06:38:48,42.805,6.029,CST-1368DR,5863,8205,15080,0.140,551
2020-10-25T06:41:50,42.805,6.029,CST-1368DR,5863,8205,15080,0.140,551
2020-10-25T06:44:51,42.805,6.029,CST-1368DR,5863,8206,15081,0.139,551
2020-10-25T06:47:53,42.805,6.029,CST-1368DR,5863,8206,15081,0.139,551
2020-10-25T06:50:54,42.805,6.029,CST-1368DR,5863,8206,15081,0.139,551
2020-10-25T06:53:56,42.805,6.029,CST-1368DR,5863,8205,15080,0.140,551
2020-10-25T06:56:57,42.805,6.029,CST-1368DR,5863,8204,15078,0.140,551
2020-10-25T06:59:59,42.805,6.029,CST-1368DR,5863,8205,15079,0.140,551
2020-10-25T07:03:01,42.805,6.029,CST-1368DR,5863,8206,15081,0.139,551
2020-10-25T07:06:02,42.805,6.029,CST-1368DR,5863,8205,15080,0.140,551
2020-10-25T07:09:04,42.805,6.029,CST-1368DR,5863,8206,15082,0.139,551
2020-10-25T07:12:05,42.805,6.029,CST-1368DR,5863,8205,15080,0.140,551
2020-10-25T07:15:07,42.805,6.029,CST-1368DR,5863,8204,15078,0.140,551
2020-10-25T07:18:09,42.805,6.029,CST-1368DR,5863,8206,15081,0.139,551
2020-10-25T07:21:10,42.805,6.029,CST-1368DR,5863,8201,15073,0.142,551
2020-10-25T07:24:12,42.805,6.029,CST-1368DR,5863,8206,15081,0.139,551
2020-10-25T07:27:13,42.805,6.029,CST-1368DR,5863,8204,15077,0.141,550
2020-10-25T07:30:15,42.805,6.029,CST-1368DR,5863,8205,15080,0.140,551
2020-10-25T07:33:16,42.805,6.029,CST-1368DR,5863,8206,15081,0.139,551
2020-10-25T07:36:18,42.805,6.029,CST-1368DR,5863,8205,15079,0.140,551
2020-10-25T07:39:20,42.805,6.029,CST-1368DR,5863,8205,15080,0.140,551
2020-10-25T07:42:21,42.805,6.029,CST-1368DR,5863,8204,15077,0.141,551
2020-10-25T07:45:23,42.805,6.029,CST-1368DR,5863,8205,15080,0.140,551
2020-10-25T07:48:24,42.805,6.029,CST-1368DR,5863,8205,15080,0.140,551
2020-10-25T07:51:26,42.805,6.029,CST-1368DR,5863,8203,15076,0.141,551
2020-10-25T07:54:27,42.805,6.029,CST-1368DR,5863,8206,15081,0.139,551
2020-10-25T07:57:29,42.805,6.029,CST-1368DR,5863,8205,15080,0.140,551
2020-10-25T08:00:31,42.805,6.029,CST-1368DR,5863,8205,15079,0.140,551
2020-10-25T08:03:32,42.805,6.029,CST-1368DR,5863,8204,15078,0.140,551
2020-10-25T08:06:34,42.805,6.029,CST-1368DR,5863,8205,15080,0.140,551
2020-10-25T08:09:35,42.805,6.029,CST-1368DR,5863,8204,15077,0.141,551
2020-10-25T08:12:37,42.805,6.029,CST-1368DR,5863,8205,15080,0.140,551
2020-10-25T08:15:39,42.805,6.029,CST-1368DR,5863,8205,15080,0.140,551
2020-10-25T08:18:40,42.805,6.029,CST-1368DR,5863,8205,15080,0.140,551
2020-10-25T08:21:42,42.805,6.029,CST-1368DR,5863,8205,15079,0.140,551
2020-10-25T08:24:43,42.805,6.029,CST-1368DR,5863,8204,15077,0.141,551
2020-10-25T08:27:45,42.805,6.029,CST-1368DR,5863,8204,15078,0.140,551
2020-10-25T08:30:46,42.805,6.029,CST-1368DR,5863,8205,15079,0.140,551
2020-10-25T08:33:48,42.805,6.029,CST-1368DR,5863,8205,15080,0.140,551
2020-10-25T08:36:50,42.805,6.029,CST-1368DR,5863,8203,15076,0.141,551
2020-10-25T08:39:51,42.805,6.029,CST-1368DR,5863,8205,15079,0.140,551
2020-10-25T08:42:53,42.805,6.029,CST-1368DR,5863,8204,15077,0.141,551
2020-10-25T08:45:54,42.805,6.029,CST-1368DR,5863,8205,15080,0.140,551
2020-10-25T08:48:56,42.805,6.029,CST-1368DR,5863,8206,15081,0.139,551
2020-10-25T08:51:57,42.805,6.029,CST-1368DR,5863,8205,15079,0.140,551
2020-10-25T08:54:59,42.805,6.029,CST-1368DR,5863,8204,15078,0.140,551
2020-10-25T08:58:01,42.805,6.029,CST-1368DR,5863,8204,15078,0.140,551
2020-10-25T09:01:02,42.805,6.029,CST-1368DR,5863,8204,15077,0.141,551
2020-10-25T09:04:04,42.805,6.029,CST-1368DR,5863,8205,15079,0.140,551
2020-10-25T09:07:05,42.805,6.029,CST-1368DR,5863,8205,15079,0.140,551
2020-10-25T09:10:07,42.805,6.029,CST-1368DR,5863,8206,15081,0.139,551
2020-10-25T09:13:09,42.805,6.029,CST-1368DR,5863,8205,15080,0.140,551
2020-10-25T09:16:10,42.805,6.029,CST-1368DR,5863,8202,15074,0.141,551
2020-10-25T09:19:12,42.805,6.029,CST-1368DR,5863,8203,15075,0.141,551
2020-10-25T09:22:13,42.805,6.029,CST-1368DR,5863,8205,15080,0.140,551
2020-10-25T09:25:15,42.805,6.029,CST-1368DR,5863,8205,15080,0.140,551
2020-10-25T09:28:16,42.805,6.029,CST-1368DR,5863,8205,15079,0.140,551
2020-10-25T09:31:18,42.805,6.029,CST-1368DR,5863,8203,15076,0.141,551
2020-10-25T09:34:20,42.805,6.029,CST-1368DR,5863,8205,15079,0.140,551
2020-10-25T09:37:21,42.805,6.029,CST-1368DR,5863,8205,15080,0.140,551
2020-10-25T09:40:23,42.805,6.029,CST-1368DR,5863,8205,15079,0.140,551
2020-10-25T09:43:24,42.805,6.029,CST-1368DR,5863,8205,15080,0.140,551
2020-10-25T09:46:26,42.805,6.029,CST-1368DR,5863,8205,15079,0.140,551
2020-10-25T09:49:28,42.805,6.029,CST-1368DR,5863,8204,15077,0.141,551
2020-10-25T09:52:29,42.805,6.029,CST-1368DR,5863,8205,15080,0.140,551
2020-10-25T09:55:31,42.805,6.029,CST-1368DR,5863,8204,15077,0.141,551
2020-10-25T09:58:32,42.805,6.029,CST-1368DR,5863,8206,15081,0.139,551
2020-10-25T10:01:34,42.805,6.029,CST-1368DR,5863,8203,15076,0.141,551
2020-10-25T10:04:35,42.805,6.029,CST-1368DR,5863,8205,15080,0.140,551
2020-10-25T10:07:37,42.805,6.029,CST-1368DR,5863,8206,15081,0.139,551
2020-10-25T10:10:39,42.805,6.029,CST-1368DR,5863,8205,15079,0.140,551
2020-10-25T10:13:40,42.805,6.029,CST-1368DR,5863,8202,15075,0.141,551
2020-10-25T10:16:42,42.805,6.029,CST-1368DR,5863,8205,15080,0.140,551
2020-10-25T10:19:43,42.805,6.029,CST-1368DR,5863,8205,15080,0.140,551
2020-10-25T10:22:45,42.805,6.029,CST-1368DR,5863,8204,15078,0.140,551
2020-10-25T10:25:46,42.805,6.029,CST-1368DR,5863,8205,15079,0.140,551
2020-10-25T10:28:48,42.805,6.029,CST-1368DR,5862,8203,15078,0.140,551
2020-10-25T10:31:50,42.805,6.029,CST-1368DR,5863,8205,15079,0.140,551
2020-10-25T10:34:51,42.805,6.029,CST-1368DR,5863,8205,15080,0.140,551
2020-10-25T10:37:53,42.805,6.029,CST-1368DR,5862,8205,15082,0.139,551
2020-10-25T10:40:54,42.805,6.029,CST-1368DR,5862,8205,15082,0.139,551
2020-10-25T10:43:56,42.805,6.029,CST-1368DR,5862,8204,15079,0.140,551
2020-10-25T10:46:58,42.805,6.029,CST-1368DR,5862,8203,15078,0.140,551
2020-10-25T10:49:59,42.805,6.029,CST-1368DR,5862,8205,15082,0.139,551
2020-10-25T10:53:01,42.805,6.029,CST-1368DR,5862,8204,15081,0.139,551
2020-10-25T10:56:02,42.805,6.029,CST-1368DR,5862,8205,15082,0.139,551
2020-10-25T10:59:04,42.805,6.029,CST-1368DR,5862,8205,15082,0.139,551
2020-10-25T11:02:05,42.805,6.029,CST-1368DR,5862,8205,15082,0.139,551
2020-10-25T11:05:07,42.805,6.029,CST-1368DR,5862,8202,15076,0.141,551
2020-10-25T11:08:09,42.805,6.029,CST-1368DR,5862,8205,15082,0.139,551
2020-10-25T11:11:10,42.805,6.029,CST-1368DR,5862,8204,15080,0.140,551
2020-10-25T11:14:12,42.805,6.029,CST-1368DR,5862,8205,15082,0.139,550
2020-10-25T11:17:13,42.805,6.029,CST-1368DR,5862,8204,15081,0.139,551
2020-10-25T11:20:15,42.805,6.029,CST-1368DR,5862,8203,15078,0.140,551
2020-10-25T11:23:16,42.805,6.029,CST-1368DR,5862,8200,15072,0.142,551
2020-10-25T11:26:18,42.805,6.029,CST-1368DR,5862,8201,15074,0.141,551
2020-10-25T11:29:20,42.805,6.029,CST-1368DR,5862,8204,15080,0.140,551
2020-10-25T11:32:21,42.805,6.029,CST-1368DR,5862,8204,15081,0.139,551
2020-10-25T11:35:23,42.805,6.029,CST-1368DR,5862,8203,15077,0.141,551
2020-10-25T11:38:24,42.805,6.029,CST-1368DR,5862,8205,15082,0.139,551
2020-10-25T11:41:26,42.805,6.029,CST-1368DR,5862,8204,15079,0.140,551
2020-10-25T11:44:28,42.805,6.029,CST-1368DR,5862,8205,15081,0.139,551
2020-10-25T11:47:29,42.805,6.029,CST-1368DR,5862,8203,15078,0.140,551
2020-10-25T11:50:31,42.805,6.029,CST-1368DR,5862,8203,15078,0.140,551
2020-10-25T11:53:32,42.805,6.029,CST-1368DR,5862,8202,15077,0.141,551
2020-10-25T11:56:34,42.805,6.029,CST-1368DR,5862,8200,15073,0.142,551
2020-10-25T11:59:35,42.805,6.029,CST-1368DR,5862,8203,15078,0.140,551
2020-10-25T12:02:37,42.805,6.029,CST-1368DR,5862,8204,15079,0.140,550
2020-10-25T12:05:39,42.805,6.029,CST-1368DR,5862,8202,15077,0.141,551
2020-10-25T12:08:40,42.805,6.029,CST-1368DR,5862,8202,15077,0.141,551
2020-10-25T12:11:42,42.805,6.029,CST-1368DR,5862,8204,15079,0.140,551
2020-10-25T12:14:43,42.805,6.029,CST-1368DR,5862,8203,15078,0.140,551
2020-10-25T12:17:45,42.805,6.029,CST-1368DR,5862,8204,15081,0.139,551
2020-10-25T12:20:47,42.805,6.029,CST-1368DR,5862,8204,15080,0.140,551
2020-10-25T12:23:48,42.805,6.029,CST-1368DR,5862,8203,15078,0.140,551
2020-10-25T12:26:50,42.805,6.029,CST-1368DR,5862,8202,15077,0.141,551
2020-10-25T12:29:51,42.805,6.029,CST-1368DR,5862,8204,15080,0.140,551
2020-10-25T12:32:53,42.805,6.029,CST-1368DR,5862,8204,15080,0.140,551
2020-10-25T12:35:54,42.805,6.029,CST-1368DR,5862,8203,15079,0.140,551
2020-10-25T12:38:56,42.805,6.029,CST-1368DR,5862,8203,15078,0.140,551
2020-10-25T12:41:58,42.805,6.029,CST-1368DR,5862,8202,15077,0.141,551
2020-10-25T12:44:59,42.805,6.029,CST-1368DR,5862,8203,15079,0.140,551
2020-10-25T12:48:01,42.805,6.029,CST-1368DR,5862,8203,15078,0.140,551
2020-10-25T12:51:02,42.805,6.029,CST-1368DR,5862,8203,15079,0.140,551
2020-10-25T12:54:04,42.805,6.029,CST-1368DR,5862,8203,15078,0.140,551
2020-10-25T12:57:05,42.805,6.029,CST-1368DR,5862,8202,15077,0.141,551
2020-10-25T13:00:07,42.805,6.029,CST-1368DR,5862,8204,15079,0.140,551
2020-10-25T13:03:09,42.805,6.029,CST-1368DR,5862,8203,15078,0.140,551
2020-10-25T13:06:10,42.805,6.029,CST-1368DR,5862,8203,15078,0.140,551
2020-10-25T13:09:12,42.805,6.029,CST-1368DR,5862,8203,15079,0.140,551
2020-10-25T13:12:13,42.805,6.029,CST-1368DR,5862,8203,15079,0.140,551
2020-10-25T13:15:15,42.805,6.029,CST-1368DR,5862,8203,15079,0.140,551
2020-10-25T13:18:17,42.805,6.029,CST-1368DR,5862,8203,15079,0.140,551
2020-10-25T13:21:18,42.805,6.029,CST-1368DR,5862,8202,15077,0.141,551
2020-10-25T13:24:20,42.805,6.029,CST-1368DR,5862,8202,15077,0.141,551
2020-10-25T13:27:21,42.805,6.029,CST-1368DR,5862,8203,15078,0.140,551
2020-10-25T13:30:23,42.805,6.029,CST-1368DR,5862,8203,15078,0.140,551
2020-10-25T13:33:24,42.805,6.029,CST-1368DR,5862,8203,15079,0.140,551
2020-10-25T13:36:26,42.805,6.029,CST-1368DR,5862,8202,15077,0.141,551
2020-10-25T13:39:28,42.805,6.029,CST-1368DR,5862,8200,15073,0.142,551
2020-10-25T13:42:29,42.805,6.029,CST-1368DR,5862,8203,15078,0.140,551
2020-10-25T13:45:31,42.805,6.029,CST-1368DR,5862,8203,15078,0.140,551
2020-10-25T13:48:32,42.805,6.029,CST-1368DR,5862,8203,15078,0.140,551
2020-10-25T13:51:34,42.805,6.029,CST-1368DR,5862,8202,15077,0.141,551
2020-10-25T13:54:36,42.805,6.029,CST-1368DR,5862,8203,15077,0.141,551
2020-10-25T13:57:37,42.805,6.029,CST-1368DR,5862,8203,15078,0.140,551
2020-10-25T14:00:39,42.805,6.029,CST-1368DR,5862,8203,15078,0.140,551
2020-10-25T14:03:40,42.805,6.029,CST-1368DR,5862,8203,15078,0.140,551
2020-10-25T14:06:42,42.805,6.029,CST-1368DR,5862,8203,15078,0.140,551
2020-10-25T14:09:43,42.805,6.029,CST-1368DR,5862,8203,15078,0.140,551
2020-10-25T14:12:45,42.805,6.029,CST-1368DR,5862,8203,15077,0.141,551
2020-10-25T14:15:47,42.805,6.029,CST-1368DR,5862,8203,15077,0.141,551
2020-10-25T14:18:48,42.805,6.029,CST-1368DR,5862,8203,15078,0.140,551
2020-10-25T14:21:50,42.805,6.029,CST-1368DR,5862,8202,15076,0.141,551
2020-10-25T14:24:51,42.805,6.029,CST-1368DR,5862,8202,15077,0.141,550
2020-10-25T14:27:53,42.805,6.029,CST-1368DR,5862,8202,15077,0.141,551
2020-10-25T14:30:54,42.805,6.029,CST-1368DR,5861,8201,15077,0.141,551
2020-10-25T14:33:56,42.805,6.029,CST-1368DR,5862,8202,15077,0.141,551
2020-10-25T14:36:58,42.805,6.029,CST-1368DR,5861,8200,15075,0.141,551
2020-10-25T14:39:59,42.805,6.029,CST-1368DR,5862,8200,15072,0.142,551
2020-10-25T14:43:01,42.805,6.029,CST-1368DR,5861,8202,15079,0.140,551
2020-10-25T14:46:02,42.805,6.029,CST-1368DR,5861,8203,15081,0.139,550
2020-10-25T14:49:04,42.805,6.029,CST-1368DR,5861,8202,15079,0.140,551
2020-10-25T14:52:06,42.805,6.029,CST-1368DR,5861,8202,15078,0.140,551
2020-10-25T14:55:07,42.805,6.029,CST-1368DR,5861,8201,15078,0.140,551
2020-10-25T14:58:09,42.805,6.029,CST-1368DR,5861,8202,15079,0.140,551
2020-10-25T15:01:10,42.805,6.029,CST-1368DR,5861,8202,15079,0.140,551
2020-10-25T15:04:12,42.805,6.029,CST-1368DR,5861,8202,15079,0.140,551
2020-10-25T15:07:13,42.805,6.029,CST-1368DR,5861,8202,15078,0.140,551
2020-10-25T15:10:15,42.805,6.029,CST-1368DR,5861,8201,15077,0.141,551
2020-10-25T15:13:17,42.805,6.029,CST-1368DR,5861,8198,15072,0.142,551
2020-10-25T15:16:18,42.805,6.029,CST-1368DR,5861,8202,15079,0.140,551
2020-10-25T15:19:20,42.805,6.029,CST-1368DR,5861,8202,15079,0.140,551
2020-10-25T15:22:21,42.805,6.029,CST-1368DR,5861,8202,15079,0.140,551
2020-10-25T15:25:23,42.805,6.029,CST-1368DR,5861,8203,15080,0.140,551
2020-10-25T15:28:25,42.805,6.029,CST-1368DR,5861,8203,15080,0.140,551
2020-10-25T15:31:26,42.805,6.029,CST-1368DR,5861,8202,15078,0.140,551
2020-10-25T15:34:28,42.805,6.029,CST-1368DR,5861,8202,15078,0.140,551
2020-10-25T15:37:29,42.805,6.029,CST-1368DR,5861,8203,15080,0.140,551
2020-10-25T15:40:31,42.805,6.029,CST-1368DR,5861,8202,15079,0.140,551
2020-10-25T15:43:32,42.805,6.029,CST-1368DR,5861,8202,15079,0.140,551
2020-10-25T15:46:34,42.805,6.029,CST-1368DR,5861,8202,15078,0.140,551
2020-10-25T15:49:36,42.805,6.029,CST-1368DR,5861,8203,15080,0.140,551
2020-10-25T15:52:37,42.805,6.029,CST-1368DR,5861,8203,15080,0.140,551
2020-10-25T15:55:39,42.805,6.029,CST-1368DR,5861,8201,15078,0.140,551
2020-10-25T15:58:40,42.805,6.029,CST-1368DR,5861,8201,15077,0.141,551
2020-10-25T16:01:42,42.805,6.029,CST-1368DR,5861,8202,15078,0.140,551
2020-10-25T16:04:44,42.805,6.029,CST-1368DR,5861,8202,15078,0.140,551
2020-10-25T16:07:45,42.805,6.029,CST-1368DR,5861,8200,15076,0.141,551
2020-10-25T16:10:47,42.805,6.029,CST-1368DR,5861,8202,15078,0.140,551
2020-10-25T16:13:48,42.805,6.029,CST-1368DR,5861,8202,15078,0.140,551
2020-10-25T16:16:50,42.805,6.029,CST-1368DR,5861,8202,15078,0.140,551
2020-10-25T16:19:51,42.805,6.029,CST-1368DR,5861,8202,15078,0.140,551
2020-10-25T16:22:53,42.805,6.029,CST-1368DR,5861,8202,15078,0.140,551
2020-10-25T16:25:55,42.805,6.029,CST-1368DR,5861,8200,15075,0.141,551
2020-10-25T16:28:56,42.805,6.029,CST-1368DR,5861,8202,15078,0.140,551
2020-10-25T16:31:58,42.805,6.029,CST-1368DR,5861,8200,15075,0.141,550
2020-10-25T16:34:59,42.805,6.029,CST-1368DR,5861,8200,15076,0.141,551
2020-10-25T16:38:01,42.805,6.029,CST-1368DR,5861,8201,15078,0.140,551
2020-10-25T16:41:02,42.805,6.029,CST-1368DR,5861,8202,15078,0.140,551
2020-10-25T16:44:04,42.805,6.029,CST-1368DR,5861,8202,15078,0.140,551
2020-10-25T16:47:06,42.805,6.029,CST-1368DR,5861,8201,15077,0.141,551
2020-10-25T16:50:07,42.805,6.029,CST-1368DR,5861,8202,15078,0.140,551
2020-10-25T16:53:09,42.805,6.029,CST-1368DR,5861,8200,15075,0.141,551